Home   Weather   Augusta   Past weeks

Flag for USA Past Weather in Augusta, Maine, USA — Yesterday and Last 2 Weeks

Now
41 °F

Sunny.


Feels Like: 36 °F
Forecast: 43 / 62 °F
Wind: 7 mph from North

Location: Augusta State Airport

Current Time: Sep 30, 2016 at 7:55:09 AM

Latest Report: Sep 30, 2016 at 6:53 AM


Visibility: 10 mi

Pressure: 30.55 "Hg

Humidity: 93%

Dew Point: 39 °F

Location of AugustaLocation

Past Weather in Augusta — Graph

°F

Augusta Temperature Yesterday

Maximum temperature yesterday: 62 °F (at 2:53 PM)
Minimum temperature yesterday: 44 °F (at 5:53 AM)
Average temperature yesterday: 52 °F

High & Low Weather Summary for the Past Weeks

 TemperatureHumidityPressure
High81 °F (Sep 22, 3:53 PM)100% (Sep 16, 5:53 AM)30.57 "Hg (Sep 16, 5:53 AM)
Low41 °F (Sep 26, 5:53 AM)25% (Sep 21, 2:53 PM)29.88 "Hg (Sep 27, 1:53 PM)
Average59 °F73%30.15 "Hg
* Reported Sep 15 5:53 AM — Sep 30 5:53 AM, Augusta, Weather by CustomWeather, © 2016

Note: Actual official high and low records may vary slightly from our data, if they occured in-between our weather recording intervals... More about our weather records

Advertising

Augusta Weather History for the Previous 24 Hours

Scroll right to see more
 ConditionsComfort  
Time TempWeatherWind HumidityBarometerVisibility
5:53 AM
Fri, Sep 30
41 °FClear.5 mph93%30.56 "Hg10 mi
4:53 AM42 °FClear.6 mph85%30.55 "Hg10 mi
3:53 AM42 °FClear.6 mph85%30.55 "Hg10 mi
2:53 AM41 °FClear.6 mph86%30.55 "Hg10 mi
1:53 AM43 °FClear.5 mph82%30.56 "Hg10 mi
12:53 AM46 °FClear.5 mph73%30.57 "Hg10 mi
11:53 PM
Thu, Sep 29
47 °FClear.6 mph71%30.57 "Hg10 mi
10:53 PM48 °FClear.5 mph71%30.57 "Hg10 mi
9:53 PM51 °FClear.5 mph61%30.56 "Hg10 mi
8:53 PM51 °FClear.6 mph61%30.55 "Hg10 mi
7:53 PM53 °FClear.6 mph56%30.55 "Hg10 mi
6:53 PM55 °FClear.5 mph51%30.54 "Hg10 mi
5:53 PM59 °FSunny.7 mph42%30.53 "Hg10 mi
4:53 PM62 °FSunny.7 mph35%30.52 "Hg10 mi
3:53 PM62 °FSunny.9 mph35%30.53 "Hg10 mi
2:53 PM62 °FSunny.12 mph39%30.53 "Hg10 mi
1:53 PM60 °FSunny.14 mph42%30.52 "Hg10 mi
12:53 PM59 °FSunny.12 mph46%30.55 "Hg10 mi
11:53 AM57 °FSunny.12 mph47%30.56 "Hg10 mi
10:53 AM54 °FSunny.12 mph57%30.56 "Hg10 mi
9:53 AM52 °FSunny.13 mph64%30.55 "Hg10 mi
8:53 AM49 °FPassing clouds.10 mph77%30.54 "Hg10 mi
7:53 AM46 °FSunny.9 mph83%30.53 "Hg10 mi
Weather by CustomWeather, © 2016

See weather overviewHow to use our weather pages